Date,TemperatureHighF,TemperatureAvgF,TemperatureLowF,DewpointHighF,DewpointAvgF,DewpointLowF,HumidityHigh,HumidityAvg,HumidityLow,PressureMaxIn,PressureMinIn,WindSpeedMaxMPH,WindSpeedAvgMPH,GustSpeedMaxMPH,PrecipitationSumIn
2013-3-1,57,54,51,50,49,47,93,85,77,30.36,30.29,19,4,19,0.02
2013-3-2,57,49,37,48,43,34,93,81,67,30.29,30.07,18,3,18,0.37
2013-3-3,48,38,29,42,36,27,94,89,72,30.34,30.21,9,0,9,0.16
2013-3-4,60,40,25,43,30,23,95,73,39,30.34,29.96,0,0,0,0.00
2013-3-5,60,45,35,37,33,27,83,64,42,29.97,29.75,0,0,0,0.00
2013-3-6,45,39,33,42,37,30,92,90,83,29.93,29.60,0,0,0,0.51
2013-3-7,50,41,32,45,38,30,92,89,80,30.13,29.93,0,0,0,0.35
2013-3-8,58,40,27,48,34,26,95,82,59,30.27,30.11,0,0,0,0.02
2013-3-9,61,41,27,47,34,24,95,78,48,30.52,30.27,0,0,0,0.00
2013-3-10,52,42,31,45,37,29,94,83,67,30.53,30.45,0,0,0,0.00
2013-3-11,62,47,31,46,39,29,94,76,46,30.48,30.18,0,0,0,0.00
2013-3-12,51,49,46,48,46,41,94,89,83,30.18,30.07,12,2,12,0.81
2013-3-13,54,51,50,51,49,48,94,91,86,30.23,30.10,14,1,14,0.41
2013-3-14,55,50,47,52,48,44,96,91,83,30.17,30.05,12,1,12,0.10
2013-3-15,64,53,47,53,48,44,94,84,64,30.23,30.14,10,1,10,0.06
2013-3-16,51,44,36,45,41,34,93,88,76,30.15,29.89,20,2,20,0.51
2013-3-17,52,42,35,43,36,32,94,81,59,30.22,29.99,11,1,11,0.10
2013-3-18,53,42,32,43,34,28,93,76,42,30.29,30.14,25,1,25,0.41
2013-3-19,60,41,30,45,33,27,94,75,40,30.28,29.62,17,1,17,0.06
2013-3-20,57,46,34,48,41,31,92,83,61,30.04,29.41,30,4,30,0.76
2013-3-21,51,39,34,44,35,32,93,86,68,30.23,30.04,9,1,9,0.20
2013-3-22,51,37,28,41,32,26,92,83,62,30.42,30.22,6,0,8,0.23
2013-3-23,61,40,27,41,30,25,94,72,36,30.45,30.33,8,0,8,0.00
2013-3-24,62,42,26,40,30,24,93,68,31,30.35,30.14,10,1,10,0.00
2013-3-25,70,46,27,42,32,25,92,62,28,30.18,29.95,9,1,9,0.00
2013-3-26,71,48,32,46,36,29,90,66,36,30.04,29.98,8,1,8,0.00
2013-3-27,63,49,38,47,41,35,91,74,53,30.03,29.96,5,0,5,0.00
2013-3-28,70,52,36,52,43,33,93,73,46,30.17,30.02,9,0,9,0.02
2013-3-29,73,52,36,53,42,34,94,72,42,30.28,30.17,3,0,3,0.00
2013-3-30,72,51,33,51,41,31,94,71,37,30.30,30.10,12,1,12,0.00
2013-3-31,66,40,33,53,37,31,93,89,60,30.11,30.04,0,0,0,0.00